Time,TemperatureF,DewpointF,PressureIn,WindDirection,WindDirectionDegrees,WindSpeedMPH,WindSpeedGustMPH,Humidity,HourlyPrecipIn,Conditions,Clouds,dailyrainin,SoftwareType,DateUTC
2013-08-07 00:02:00,67.6,67.6,0.00,West,281,0.0,0.0,100,0.00,,,-99.99,VWS V12.07,2013-08-07 04:02:00,
2013-08-07 00:05:00,67.5,67.5,0.00,WNW,292,6.1,6.7,100,0.00,,,-99.99,VWS V12.07,2013-08-07 04:05:00,
2013-08-07 00:12:00,67.7,67.7,0.00,South,174,0.0,6.9,100,0.00,,,-99.99,VWS V12.07,2013-08-07 04:12:00,
2013-08-07 00:15:00,67.7,67.7,0.00,WNW,300,0.0,6.9,100,0.00,,,-99.99,VWS V12.07,2013-08-07 04:15:00,
2013-08-07 00:22:00,67.7,67.7,0.00,West,281,0.0,3.3,100,0.00,,,-99.99,VWS V12.07,2013-08-07 04:22:00,
2013-08-07 00:25:00,67.7,67.7,0.00,West,281,0.0,5.8,100,0.00,,,-99.99,VWS V12.07,2013-08-07 04:25:00,
2013-08-07 00:32:00,67.6,67.6,0.00,WSW,257,0.0,5.8,100,0.00,,,-99.99,VWS V12.07,2013-08-07 04:32:00,
2013-08-07 00:42:00,67.5,67.5,0.00,West,266,0.0,0.0,100,0.00,,,-99.99,VWS V12.07,2013-08-07 04:42:00,
2013-08-07 00:52:00,67.4,67.4,0.00,South,188,0.0,8.1,100,0.00,,,-99.99,VWS V12.07,2013-08-07 04:52:00,
2013-08-07 01:02:00,67.3,67.3,0.00,West,264,0.0,7.4,100,0.00,,,-99.99,VWS V12.07,2013-08-07 05:02:00,
2013-08-07 01:12:00,67.2,67.2,0.00,SSW,194,0.0,7.5,100,0.00,,,-99.99,VWS V12.07,2013-08-07 05:12:00,
2013-08-07 01:22:00,67.1,67.1,0.00,NW,318,2.7,8.3,100,0.00,,,-99.99,VWS V12.07,2013-08-07 05:22:00,
2013-08-07 01:32:00,67.1,67.1,0.00,WNW,298,0.0,9.5,100,0.00,,,-99.99,VWS V12.07,2013-08-07 05:32:00,
2013-08-07 01:42:00,67.0,67.0,0.00,South,191,5.3,5.3,100,0.00,,,-99.99,VWS V12.07,2013-08-07 05:42:00,
2013-08-07 01:52:00,66.9,66.9,0.00,WSW,239,0.0,7.5,100,0.00,,,-99.99,VWS V12.07,2013-08-07 05:52:00,
2013-08-07 02:02:00,66.7,66.7,0.00,SW,228,3.0,6.0,100,0.00,,,-99.99,VWS V12.07,2013-08-07 06:02:00,
2013-08-07 02:12:00,66.6,66.6,0.00,WNW,294,0.0,7.5,100,0.00,,,-99.99,VWS V12.07,2013-08-07 06:12:00,
2013-08-07 02:22:00,66.5,66.5,0.00,SW,215,2.9,2.9,100,0.00,,,-99.99,VWS V12.07,2013-08-07 06:22:00,
2013-08-07 02:32:00,66.4,66.4,0.00,West,263,0.0,6.2,100,0.00,,,-99.99,VWS V12.07,2013-08-07 06:32:00,
2013-08-07 02:42:00,66.3,66.3,0.00,SW,229,0.0,5.5,100,0.00,,,-99.99,VWS V12.07,2013-08-07 06:42:00,
2013-08-07 02:52:00,66.3,66.3,0.00,South,169,0.0,6.6,100,0.00,,,-99.99,VWS V12.07,2013-08-07 06:52:00,
2013-08-07 03:02:00,66.2,66.2,0.00,SW,231,0.0,5.2,100,0.00,,,-99.99,VWS V12.07,2013-08-07 07:02:00,
2013-08-07 03:12:00,66.1,66.1,0.00,WSW,257,0.0,5.2,100,0.00,,,-99.99,VWS V12.07,2013-08-07 07:12:00,
2013-08-07 03:22:00,66.1,66.1,0.00,WSW,243,0.0,0.0,100,0.00,,,-99.99,VWS V12.07,2013-08-07 07:22:00,
2013-08-07 03:32:00,66.0,66.0,0.00,WSW,243,0.0,0.0,100,0.00,,,-99.99,VWS V12.07,2013-08-07 07:32:00,
2013-08-07 03:42:00,65.9,65.9,0.00,West,274,0.0,0.0,100,0.00,,,-99.99,VWS V12.07,2013-08-07 07:42:00,
2013-08-07 03:52:00,65.9,65.9,0.00,West,274,0.0,0.0,100,0.00,,,-99.99,VWS V12.07,2013-08-07 07:52:00,
2013-08-07 04:02:00,65.9,65.9,0.00,West,274,0.0,0.0,100,0.00,,,-99.99,VWS V12.07,2013-08-07 08:02:00,
2013-08-07 04:12:00,65.9,65.9,0.00,West,274,0.0,0.0,100,0.00,,,-99.99,VWS V12.07,2013-08-07 08:12:00,
2013-08-07 04:22:00,65.8,65.8,0.00,West,274,0.0,0.0,100,0.00,,,-99.99,VWS V12.07,2013-08-07 08:22:00,
2013-08-07 04:32:00,65.8,65.8,0.00,West,274,0.0,0.0,100,0.00,,,-99.99,VWS V12.07,2013-08-07 08:32:00,
2013-08-07 04:42:00,65.7,65.7,0.00,West,274,0.0,0.0,100,0.00,,,-99.99,VWS V12.07,2013-08-07 08:42:00,
2013-08-07 04:52:00,65.7,65.7,0.00,SSW,212,0.0,3.4,100,0.00,,,-99.99,VWS V12.07,2013-08-07 08:52:00,
2013-08-07 05:02:00,65.8,65.8,0.00,SSW,212,0.0,0.0,100,0.00,,,-99.99,VWS V12.07,2013-08-07 09:02:00,
2013-08-07 05:12:00,65.8,65.8,0.00,West,273,0.0,3.4,100,0.00,,,-99.99,VWS V12.07,2013-08-07 09:12:00,
2013-08-07 05:22:00,65.7,65.7,0.00,West,273,0.0,0.0,100,0.00,,,-99.99,VWS V12.07,2013-08-07 09:22:00,
2013-08-07 05:32:00,65.8,65.8,0.00,West,273,0.0,0.0,100,0.00,,,-99.99,VWS V12.07,2013-08-07 09:32:00,
2013-08-07 05:42:00,65.8,65.8,0.00,West,273,0.0,0.0,100,0.00,,,-99.99,VWS V12.07,2013-08-07 09:42:00,
2013-08-07 05:52:00,65.8,65.8,0.00,West,273,0.0,0.0,100,0.00,,,-99.99,VWS V12.07,2013-08-07 09:52:00,
2013-08-07 06:02:00,65.8,65.8,0.00,West,273,0.0,0.0,100,0.00,,,-99.99,VWS V12.07,2013-08-07 10:02:00,
2013-08-07 06:12:00,65.9,65.9,0.00,West,273,0.0,0.0,100,0.00,,,-99.99,VWS V12.07,2013-08-07 10:12:00,
2013-08-07 06:22:00,65.9,65.9,0.00,West,273,0.0,0.0,100,0.00,,,-99.99,VWS V12.07,2013-08-07 10:22:00,
2013-08-07 06:32:00,66.0,66.0,0.00,West,273,0.0,0.0,100,0.00,,,-99.99,VWS V12.07,2013-08-07 10:32:00,
2013-08-07 06:42:00,65.9,65.9,0.00,West,273,0.0,0.0,100,0.00,,,-99.99,VWS V12.07,2013-08-07 10:42:00,
2013-08-07 06:52:00,65.8,65.8,0.00,West,273,0.0,0.0,100,0.00,,,-99.99,VWS V12.07,2013-08-07 10:52:00,
2013-08-07 07:02:00,65.7,65.7,0.00,WNW,291,0.0,3.4,100,0.00,,,-99.99,VWS V12.07,2013-08-07 11:02:00,
2013-08-07 07:12:00,65.7,65.7,0.00,West,269,0.0,4.3,100,0.00,,,-99.99,VWS V12.07,2013-08-07 11:12:00,
2013-08-07 07:22:00,65.9,65.9,0.00,West,277,0.0,0.0,100,0.00,,,-99.99,VWS V12.07,2013-08-07 11:22:00,
2013-08-07 07:32:00,65.9,65.9,0.00,West,277,0.0,0.0,100,0.00,,,-99.99,VWS V12.07,2013-08-07 11:32:00,
2013-08-07 07:42:00,66.1,66.1,0.00,West,277,0.0,0.0,100,0.00,,,-99.99,VWS V12.07,2013-08-07 11:42:00,
2013-08-07 07:52:00,66.2,66.2,0.00,West,277,0.0,0.0,100,0.00,,,-99.99,VWS V12.07,2013-08-07 11:52:00,
2013-08-07 08:02:00,66.3,66.3,0.00,West,277,0.0,0.0,100,0.00,,,-99.99,VWS V12.07,2013-08-07 12:02:00,
2013-08-07 08:12:00,66.6,66.6,0.00,West,277,0.0,0.0,100,0.00,,,-99.99,VWS V12.07,2013-08-07 12:12:00,
2013-08-07 08:26:00,66.9,66.9,0.00,West,277,0.0,0.0,100,0.00,,,-99.99,VWS V12.07,2013-08-07 12:26:00,
2013-08-07 08:32:00,67.0,67.0,0.00,West,277,0.0,0.0,100,0.00,,,-99.99,VWS V12.07,2013-08-07 12:32:00,
2013-08-07 08:42:00,67.1,67.1,0.00,West,277,0.0,0.0,100,0.00,,,-99.99,VWS V12.07,2013-08-07 12:42:00,
2013-08-07 08:52:00,67.2,67.2,0.00,West,277,0.0,0.0,100,0.00,,,-99.99,VWS V12.07,2013-08-07 12:52:00,
2013-08-07 09:02:00,67.3,67.3,0.00,West,277,0.0,0.0,100,0.00,,,-99.99,VWS V12.07,2013-08-07 13:02:00,
2013-08-07 09:12:00,67.5,67.5,0.00,West,277,0.0,0.0,100,0.00,,,-99.99,VWS V12.07,2013-08-07 13:12:00,
2013-08-07 09:22:00,67.9,67.9,0.00,West,277,0.0,0.0,100,0.00,,,-99.99,VWS V12.07,2013-08-07 13:22:00,
2013-08-07 09:32:00,68.3,68.3,0.00,West,277,0.0,0.0,100,0.00,,,-99.99,VWS V12.07,2013-08-07 13:32:00,
2013-08-07 09:47:00,69.0,69.0,0.00,West,277,0.0,0.0,100,0.00,,,-99.99,VWS V12.07,2013-08-07 13:47:00,
2013-08-07 09:53:00,69.2,69.2,0.00,West,277,0.0,0.0,100,0.00,,,-99.99,VWS V12.07,2013-08-07 13:53:00,
2013-08-07 10:02:00,69.3,69.3,0.00,West,277,0.0,0.0,100,0.00,,,-99.99,VWS V12.07,2013-08-07 14:02:00,
2013-08-07 10:13:00,69.3,69.3,0.00,West,277,0.0,0.0,100,0.00,,,-99.99,VWS V12.07,2013-08-07 14:13:00,
2013-08-07 10:22:00,69.7,69.7,0.00,West,277,0.0,0.0,100,0.00,,,-99.99,VWS V12.07,2013-08-07 14:22:00,
2013-08-07 10:32:00,70.2,70.2,0.00,WSW,255,0.0,7.8,100,0.00,,,-99.99,VWS V12.07,2013-08-07 14:32:00,
2013-08-07 10:42:00,70.6,70.6,0.00,West,274,5.4,8.5,100,0.00,,,-99.99,VWS V12.07,2013-08-07 14:42:00,
2013-08-07 10:52:00,70.8,70.8,0.00,WNW,294,7.1,9.6,100,0.00,,,-99.99,VWS V12.07,2013-08-07 14:52:00,
2013-08-07 11:02:00,70.8,70.8,0.00,West,271,6.6,8.1,100,0.00,,,-99.99,VWS V12.07,2013-08-07 15:02:00,
2013-08-07 11:12:00,70.9,70.9,0.00,West,274,4.7,9.7,100,0.00,,,-99.99,VWS V12.07,2013-08-07 15:12:00,
2013-08-07 11:22:00,70.8,70.8,0.00,WNW,287,4.8,6.5,100,0.00,,,-99.99,VWS V12.07,2013-08-07 15:22:00,
2013-08-07 11:32:00,71.0,71.0,0.00,West,274,4.4,7.1,100,0.00,,,-99.99,VWS V12.07,2013-08-07 15:32:00,
2013-08-07 11:42:00,71.4,71.4,0.00,NW,323,0.0,0.0,100,0.00,,,-99.99,VWS V12.07,2013-08-07 15:42:00,
2013-08-07 11:52:00,72.2,72.0,0.00,SW,226,0.0,9.4,99,0.00,,,-99.99,VWS V12.07,2013-08-07 15:52:00,
2013-08-07 12:02:00,72.4,71.8,0.00,SW,219,0.0,6.5,98,0.00,,,-99.99,VWS V12.07,2013-08-07 16:02:00,
2013-08-07 12:12:00,72.7,72.1,0.00,WSW,252,0.0,8.3,98,0.00,,,-99.99,VWS V12.07,2013-08-07 16:12:00,
2013-08-07 12:22:00,73.0,71.9,0.00,WNW,295,0.0,6.8,96,0.00,,,-99.99,VWS V12.07,2013-08-07 16:22:00,
2013-08-07 12:32:00,73.4,72.0,0.00,West,267,0.0,7.3,96,0.00,,,-99.99,VWS V12.07,2013-08-07 16:32:00,
2013-08-07 12:42:00,73.6,71.8,0.00,West,269,0.0,4.5,94,0.00,,,-99.99,VWS V12.07,2013-08-07 16:42:00,
2013-08-07 12:52:00,73.3,71.7,0.00,SSW,208,0.0,6.1,95,0.00,,,-99.99,VWS V12.07,2013-08-07 16:52:00,
2013-08-07 13:02:00,73.0,71.4,0.00,WNW,294,5.2,9.2,95,0.00,,,-99.99,VWS V12.07,2013-08-07 17:02:00,
2013-08-07 13:12:00,72.6,71.0,0.00,NW,308,0.0,9.2,95,0.00,,,-99.99,VWS V12.07,2013-08-07 17:12:00,
2013-08-07 13:22:00,72.3,70.9,0.00,NNW,332,0.0,5.0,95,0.00,,,-99.99,VWS V12.07,2013-08-07 17:22:00,
2013-08-07 13:32:00,72.3,71.3,0.00,West,267,0.0,6.8,97,0.00,,,-99.99,VWS V12.07,2013-08-07 17:32:00,
2013-08-07 13:42:00,72.1,71.2,0.00,West,267,0.0,0.0,97,0.00,,,-99.99,VWS V12.07,2013-08-07 17:42:00,
2013-08-07 13:52:00,71.8,71.0,0.00,West,267,0.0,0.0,97,0.00,,,-99.99,VWS V12.07,2013-08-07 17:52:00,
2013-08-07 14:02:00,72.0,71.4,0.00,NNW,335,0.0,2.4,98,0.00,,,-99.99,VWS V12.07,2013-08-07 18:02:00,
2013-08-07 14:12:00,72.3,71.6,0.00,NNW,335,0.0,2.4,98,0.00,,,-99.99,VWS V12.07,2013-08-07 18:12:00,
2013-08-07 14:22:00,72.8,71.8,0.00,WNW,283,4.5,4.5,97,0.00,,,-99.99,VWS V12.07,2013-08-07 18:22:00,
2013-08-07 14:40:00,72.7,71.5,0.00,NW,318,0.0,0.0,96,0.00,,,-99.99,VWS V12.07,2013-08-07 18:40:00,
2013-08-07 14:52:00,71.9,70.9,0.00,SSE,159,0.0,4.3,97,0.00,,,-99.99,VWS V12.07,2013-08-07 18:52:00,
2013-08-07 15:02:00,71.5,71.2,0.00,East,101,0.0,0.0,99,0.00,,,-99.99,VWS V12.07,2013-08-07 19:02:00,
2013-08-07 15:12:00,72.0,72.0,0.00,East,101,0.0,2.6,100,0.00,,,-99.99,VWS V12.07,2013-08-07 19:12:00,
2013-08-07 15:22:00,71.7,71.5,0.00,SW,225,3.4,6.4,99,0.00,,,-99.99,VWS V12.07,2013-08-07 19:22:00,
2013-08-07 15:32:00,70.7,70.3,0.00,West,274,3.5,7.2,99,0.00,,,-99.99,VWS V12.07,2013-08-07 19:32:00,
2013-08-07 15:47:00,69.8,69.7,0.00,West,281,4.3,5.5,100,0.00,,,-99.99,VWS V12.07,2013-08-07 19:47:00,
2013-08-07 15:52:00,69.5,69.5,0.00,WSW,245,0.0,8.0,100,0.00,,,-99.99,VWS V12.07,2013-08-07 19:52:00,
2013-08-07 16:02:00,69.4,69.4,0.00,WNW,298,4.8,5.0,100,0.00,,,-99.99,VWS V12.07,2013-08-07 20:02:00,
2013-08-07 16:12:00,68.9,68.9,0.00,NW,316,0.0,6.5,100,0.00,,,-99.99,VWS V12.07,2013-08-07 20:12:00,
2013-08-07 16:22:00,68.5,68.5,0.00,West,281,0.0,0.0,100,0.00,,,-99.99,VWS V12.07,2013-08-07 20:22:00,
2013-08-07 16:32:00,68.3,68.3,0.00,West,281,0.0,0.0,100,0.00,,,-99.99,VWS V12.07,2013-08-07 20:32:00,
2013-08-07 16:42:00,68.2,68.2,0.00,West,281,0.0,0.0,100,0.00,,,-99.99,VWS V12.07,2013-08-07 20:42:00,
2013-08-07 16:52:00,68.4,68.4,0.00,NW,312,2.9,5.3,100,0.00,,,-99.99,VWS V12.07,2013-08-07 20:52:00,
2013-08-07 17:10:00,69.3,69.3,0.00,West,262,0.0,4.8,100,0.00,,,-99.99,VWS V12.07,2013-08-07 21:10:00,
2013-08-07 17:22:00,69.3,69.3,0.00,West,280,3.2,3.5,100,0.00,,,-99.99,VWS V12.07,2013-08-07 21:22:00,
2013-08-07 17:32:00,69.2,69.2,0.00,West,263,0.0,5.3,100,0.00,,,-99.99,VWS V12.07,2013-08-07 21:32:00,
2013-08-07 17:42:00,68.6,68.6,0.00,WSW,248,3.2,8.5,100,0.00,,,-99.99,VWS V12.07,2013-08-07 21:42:00,
2013-08-07 17:52:00,68.4,68.4,0.00,WSW,245,0.0,8.5,100,0.00,,,-99.99,VWS V12.07,2013-08-07 21:52:00,
2013-08-07 18:02:00,68.1,68.1,0.00,WNW,294,2.9,9.6,100,0.00,,,-99.99,VWS V12.07,2013-08-07 22:02:00,
2013-08-07 18:12:00,67.8,67.8,0.00,West,267,0.0,9.6,100,0.00,,,-99.99,VWS V12.07,2013-08-07 22:12:00,
2013-08-07 18:22:00,67.8,67.8,0.00,West,262,0.0,5.8,100,0.00,,,-99.99,VWS V12.07,2013-08-07 22:22:00,
2013-08-07 18:32:00,67.7,67.7,0.00,SW,236,4.6,10.3,100,0.00,,,-99.99,VWS V12.07,2013-08-07 22:32:00,
2013-08-07 18:42:00,67.7,67.7,0.00,WNW,284,3.4,6.0,100,0.00,,,-99.99,VWS V12.07,2013-08-07 22:42:00,
2013-08-07 18:52:00,67.7,67.7,0.00,SW,236,5.2,8.7,100,0.00,,,-99.99,VWS V12.07,2013-08-07 22:52:00,
2013-08-07 19:02:00,67.5,67.5,0.00,West,264,5.5,9.2,100,0.00,,,-99.99,VWS V12.07,2013-08-07 23:02:00,
2013-08-07 19:12:00,67.4,67.4,0.00,NW,304,3.3,10.4,100,0.00,,,-99.99,VWS V12.07,2013-08-07 23:12:00,
2013-08-07 19:22:00,67.4,67.4,0.00,West,274,6.7,7.5,100,0.00,,,-99.99,VWS V12.07,2013-08-07 23:22:00,
2013-08-07 19:32:00,67.3,67.3,0.00,WSW,255,4.7,10.6,100,0.00,,,-99.99,VWS V12.07,2013-08-07 23:32:00,
2013-08-07 19:42:00,67.3,67.3,0.00,WNW,283,0.0,4.3,100,0.00,,,-99.99,VWS V12.07,2013-08-07 23:42:00,
2013-08-07 19:52:00,67.2,67.2,0.00,South,190,0.0,8.8,100,0.00,,,-99.99,VWS V12.07,2013-08-07 23:52:00,
2013-08-07 20:02:00,67.2,67.2,0.00,WSW,245,0.0,0.0,100,0.00,,,-99.99,VWS V12.07,2013-08-08 00:02:00,
2013-08-07 20:12:00,67.0,67.0,0.00,West,260,0.0,6.9,100,0.00,,,-99.99,VWS V12.07,2013-08-08 00:12:00,
2013-08-07 20:22:00,66.9,66.9,0.00,West,260,0.0,0.0,100,0.00,,,-99.99,VWS V12.07,2013-08-08 00:22:00,
2013-08-07 20:32:00,66.9,66.9,0.00,WSW,238,0.0,3.4,100,0.00,,,-99.99,VWS V12.07,2013-08-08 00:32:00,
2013-08-07 20:42:00,66.7,66.7,0.00,WSW,253,0.0,0.0,100,0.00,,,-99.99,VWS V12.07,2013-08-08 00:42:00,
2013-08-07 20:52:00,66.5,66.5,0.00,West,259,0.0,4.7,100,0.00,,,-99.99,VWS V12.07,2013-08-08 00:52:00,
2013-08-07 21:02:00,66.4,66.4,0.00,WSW,249,0.0,5.1,100,0.00,,,-99.99,VWS V12.07,2013-08-08 01:02:00,
2013-08-07 21:12:00,66.3,66.3,0.00,WSW,250,0.0,7.5,100,0.00,,,-99.99,VWS V12.07,2013-08-08 01:12:00,
2013-08-07 21:22:00,66.2,66.2,0.00,SW,219,0.0,5.7,100,0.00,,,-99.99,VWS V12.07,2013-08-08 01:22:00,
2013-08-07 21:32:00,66.2,66.2,0.00,West,278,3.1,5.7,100,0.00,,,-99.99,VWS V12.07,2013-08-08 01:32:00,
2013-08-07 21:42:00,66.2,66.2,0.00,West,273,6.0,6.0,100,0.00,,,-99.99,VWS V12.07,2013-08-08 01:42:00,
2013-08-07 21:52:00,66.1,66.1,0.00,WSW,257,0.0,6.0,100,0.00,,,-99.99,VWS V12.07,2013-08-08 01:52:00,
2013-08-07 22:02:00,66.0,66.0,0.00,WSW,256,0.0,2.5,100,0.00,,,-99.99,VWS V12.07,2013-08-08 02:02:00,
2013-08-07 22:12:00,65.9,65.9,0.00,WSW,256,0.0,2.5,100,0.00,,,-99.99,VWS V12.07,2013-08-08 02:12:00,
2013-08-07 22:22:00,65.9,65.9,0.00,SSW,208,0.0,3.5,100,0.00,,,-99.99,VWS V12.07,2013-08-08 02:22:00,
2013-08-07 22:32:00,65.9,65.9,0.00,WSW,256,0.0,4.5,100,0.00,,,-99.99,VWS V12.07,2013-08-08 02:32:00,
2013-08-07 22:42:00,65.9,65.9,0.00,West,277,3.2,7.6,100,0.00,,,-99.99,VWS V12.07,2013-08-08 02:42:00,
2013-08-07 22:52:00,65.9,65.9,0.00,WSW,256,1.9,7.6,100,0.00,,,-99.99,VWS V12.07,2013-08-08 02:52:00,
2013-08-07 23:02:00,65.9,65.9,0.00,WSW,250,5.7,7.0,100,0.00,,,-99.99,VWS V12.07,2013-08-08 03:02:00,
2013-08-07 23:12:00,65.8,65.8,0.00,SSW,202,0.0,7.0,100,0.00,,,-99.99,VWS V12.07,2013-08-08 03:12:00,
2013-08-07 23:22:00,65.8,65.8,0.00,West,270,1.8,6.6,100,0.00,,,-99.99,VWS V12.07,2013-08-08 03:22:00,
2013-08-07 23:32:00,65.8,65.8,0.00,SSW,198,0.0,6.6,100,0.00,,,-99.99,VWS V12.07,2013-08-08 03:32:00,
2013-08-07 23:42:00,65.8,65.8,0.00,West,270,3.2,6.9,100,0.00,,,-99.99,VWS V12.07,2013-08-08 03:42:00,
2013-08-07 23:52:00,65.7,65.7,0.00,SW,215,4.6,6.9,100,0.00,,,-99.99,VWS V12.07,2013-08-08 03:52:00,